Location: Newark
(40.9833°N, 0.0333°W)
Time: 02:26:21
(UTC+00:00)

Altair - Pass Details

Date: 27 October 2020
Orbit: 1502 x 1682 km, 47.2° (Epoch: 02 December)

Event Time Altitude Azimuth Distance (km) Brightness Sun altitude
Rises 04:12:12 0° 212° (SSW) 4,625 - -25.7°
Reaches altitude 10° 04:15:20 10° 206° (SSW) 3,655 - -25.1°
Exits shadow 04:15:24 10° 206° (SSW) 3,635 9.2 -25.1°
Maximum altitude 04:23:57 46° 137° (SE) 1,959 8.2 -23.5°
Drops below altitude 10° 04:32:49 10° 68° (ENE) 3,770 10.5 -21.8°
Sets 04:36:05 0° 63° (ENE) 4,782 11.2 -21.2°
